Simultaneous Nadir Overpasses (SNOs) Predictions

Prediction of SNOs between METOP-A and TERRA Satellite Orbit:

Table of predicted SNOs for the next 14.0 days since TLE Epoch: 11/3/2018
Index Date (METOP-A) Time (METOP-A) Lat,Lon (METOP-A) SZA (METOP-A ) Date (TERRA) Time (TERRA) Lat,Lon (TERRA) SZA (TERRA ) Distance(km) Time Diff (sec)
1 11/05/2018 12:33:05 81.43, 41.62 100.59 11/05/2018 12:33:36 81.43, 41.43 100.57 3.36 31
2 11/05/2018 13:23:44 -81.43,-150.50 79.35 11/05/2018 13:23:02 -81.44,-150.68 79.38 3.02 42
3 11/08/2018 08:07:20 81.43, 107.91 101.39 11/08/2018 08:07:48 81.43, 107.90 101.40 0.68 28
4 11/08/2018 08:57:59 -81.43, -84.18 78.54 11/08/2018 08:57:14 -81.44, -84.17 78.55 1.00 45
5 11/11/2018 03:41:35 81.43, 174.58 102.20 11/11/2018 03:42:01 81.43, 174.43 102.20 2.61 26
6 11/11/2018 04:32:15 -81.43, -17.87 77.77 11/11/2018 04:31:28 -81.43, -18.01 77.81 2.32 47
7 11/13/2018 23:15:51 81.43,-119.16 102.93 11/13/2018 23:16:14 81.44,-118.99 102.96 2.74 23
8 11/14/2018 00:06:31 -81.43, 48.43 77.04 11/14/2018 00:05:41 -81.44, 48.60 77.05 2.89 50
9 11/16/2018 18:50:06 81.43, -52.91 103.60 11/16/2018 18:50:27 81.43, -52.75 103.62 2.69 21




NCC Satellite Simultaneous Nadir Overpasses (SNOs) Prediction Service
